Tracking 18186 objects as of 30-March-2017
HD Live streaming from Space Station
objects crossing your sky now

METEOSAT 5 AKM

Track METEOSAT 5 AKM now!


NORAD ID: 21904
Int'l Code: 1991-015E
Perigee: 35,172.5 km
Apogee: 36,479.2 km
Inclination: 14.5 °
Period: 1,437.7 minutes
Semi major axis: 42196 km
RCS: 0.9471 m2 (medium)
Launch date: March 2, 1991
Source: European Space Agency (ESA)
Launch site: FRENCH GUIANA (FRGUI)

Note: This is a ROCKET BODY
Your satellite tracking list
Your tracking list is empty





NASA's NSSDC Master Catalog

Two Line Element Set (TLE):
1 21904U 91015E   17084.07872387 -.00000010 +00000-0 +00000-0 0  9996
2 21904 014.4700 006.1031 0154837 146.7017 069.2116 01.00157466082723
Source of the keplerian elements: AFSPC